Miscellaneous Local Product
Issued by NWS North Platte, NE

Home | Current Version | Previous Version | Text Only | Print | Product List | Glossary On
Versions: 1 2 3 4 5 6 7 8 9 10 11 12 13 14 15 16 17 18 19 20 21 22 23 24 25 26 27 28 29 30 31 32 33 34 35 36 37 38 39 40 41 42 43 44 45 46 47 48 49 50
000
AXUS43 KLBF 230010
MISLBF


WESTERN AND NORTH CENTRAL NEBRASKA HOURLY WEATHER ROUNDUP
NATIONAL WEATHER SERVICE NORTH PLATTE NE
700 PM CDT FRI SEP 22 2017

NOTE: "FAIR" INDICATES FEW OR NO CLOUDS BELOW 12,000 FEET WITH NO
SIGNIFICANT WEATHER AND/OR OBSTRUCTIONS TO VISIBILITY.

NOTE: STATIONS NOT REPORTING VARIABLES SUCH AS SKY/WEATHER OR
PRESSURE ARE PROVIDED BY RAWS AND APRS NETWORKS AND ARE NOT UNDER
NATIONAL WEATHER SERVICE QUALITY CONTROL.

...OBSERVATIONS IN AND NEAR THE EASTERN PANHANDLE OF NEBRASKA...

CITY           SKY/WX    TMP DP  RH WIND       PRES   REMARKS
PINE RIDGE     CLEAR     62  43  49 N14       29.88R
GORDON         FAIR      62  42  49 N16       29.86S
CHADRON        CLEAR     62  40  44 NE17G24   29.86R
ALLIANCE       CLEAR     64  42  44 N9        29.83R
SIDNEY         CLOUDY    69  45  41 N15G22    29.84R
$$

...OBSERVATIONS IN NORTHERN NEBRASKA AND FAR SOUTHERN SOUTH DAKOTA...

CITY           SKY/WX    TMP DP  RH WIND       PRES   REMARKS
WINNER         FAIR      66  52  60 NW17      29.80R
VALENTINE      CLOUDY    67  47  48 N15       29.82R
THEDFORD       CLOUDY    69  52  54 N13       29.80S
AINSWORTH      MOCLDY    66  53  62 N16       29.81S
O`NEILL        CLOUDY    69  64  85 N10       29.77R
ORD            PTCLDY    89  55  31 S17G28    29.70R
BROKEN BOW     CLOUDY    90  55  30 S20G28    29.73R
VALENTINE NWR    N/A     65  49  56 N13G22      N/A
HALSEY           N/A     73  51  45 N8G16       N/A
BUTTE            N/A     70  55  59 NW8         N/A
CHAMBERS         N/A     72  61  68 CALM        N/A
EWING            N/A     88  66  47 S10G20      N/A  HX  90
$$

...OBSERVATIONS IN SOUTHWEST NEBRASKA AND FAR NORTHEAST COLORADO...

CITY           SKY/WX    TMP DP  RH WIND       PRES   REMARKS
WRAY           FAIR      86  32  14 S9        29.73F
HOLYOKE        FAIR      79  43  27 NE10      29.76S
IMPERIAL       CLOUDY    88  31  13 SW9       29.72R
OGALLALA       CLOUDY    79  46  31 NE9       29.75S
NORTH PLATTE   MOCLDY    89  53  29 S12       29.70R
MCCOOK         PTCLDY    92  55  28 S23G32    29.71R HX  90
LEXINGTON      CLOUDY    90  52  27 SE15      29.73R
STAPLETON        N/A     74  54  49 CALM        N/A
GOTHENBURG       N/A     94  45  18 S16         N/A  HX  90
CALLAWAY         N/A     93  55  27 S14         N/A  HX  91
$$

...OBSERVATIONS IN CENTRAL LINCOLN COUNTY AREA...

CITY           SKY/WX    TMP DP  RH WIND       PRES   REMARKS
N.P. AIRPORT   MOCLDY    89  53  29 S12       29.70R
N.P. DOWNTOWN    N/A     88  56  33 S3          N/A
N.P. SOUTHEAST   N/A     89  56  32 S7G14       N/A
N.P. HILLCREST   N/A     88  54  31 S12         N/A
$$

...SOME OBSERVATIONS FROM AROUND THE REGION...

CITY           SKY/WX    TMP DP  RH WIND       PRES   REMARKS
DENVER         MOCLDY    67  40  37 N26       29.80R
LIMON            N/A    N/A N/A N/A MISG      29.81S
ASPEN          CLOUDY    58  36  43 N12       29.95R
LARAMIE        CLOUDY    49  41  74 E6        29.93F
CASPER         CLOUDY    50  46  86 E10       29.89F
CHEYENNE       CLOUDY    58  35  42 NE14G26   29.90R
SCOTTSBLUFF    CLOUDY    69  43  38 E6        29.85R
GRAND ISLAND   CLOUDY    87  65  47 S21       29.77R
OMAHA          MOCLDY    89  67  47 S21       29.82R HX  92
SIOUX FALLS    MOCLDY    88  69  53 S15G23    29.73R HX  92
PIERRE         PTCLDY    60  47  61 NW20G30   29.81S
RAPID CITY     CLEAR     54  37  54 N23       29.92R
BISMARCK       CLOUDY    50  47  89 N16G23    29.89R
KANSAS CITY    PTCLDY    81  69  67 S9        29.93R
HILL CITY      MOCLDY    92  56  29 S22G31    29.75R HX  90
WICHITA        PTCLDY    87  68  52 SE17G24   29.87R HX  90
DODGE CITY     CLEAR     88  59  37 S26G35    29.83R
OKLAHOMA CITY  PTCLDY    83  67  58 SE13G23   29.90S
DALLAS         PTCLDY    90  64  42 SE10      29.87S HX  91
AMARILLO       CLOUDY    83  59  44 S20       29.88S
$$




USA.gov is the U.S. government's official web portal to all federal, state and local government web resources and services.